Location: Althorst
(53.6379°N, 10.7715°E)
Time: 02:44:23
(UTC+00:00)

Cosmos 1980 Rocket - Pass Details

Date: 10 December 2019
Orbit: 829 x 850 km, 71.0° (Epoch: 20 January)

Event Time Altitude Azimuth Distance (km) Brightness Sun altitude
Rises 17:20:00 0° 296° (WNW) 3,423 6.2 -19.8°
Reaches altitude 10° 17:23:48 10° 321° (NW) 2,489 5.0 -20.3°
Maximum altitude 17:26:44 14° 352° (N) 2,208 4.3 -20.8°
Enters shadow 17:28:47 12° 15° (NNE) 2,346 4.3 -21.0°
